Flag for Cote d'Ivoire (Ivory Coast) Weather past 2 weeks in Abidjan, Cote d'Ivoire (Ivory Coast)

Now
73 °F

Mostly cloudy.


Feels Like: 68 °F
Forecast: 74 / 82 °F
Wind: 7 mph from Southwest

Location: Abidjan Airport

Current Time: Sep 2, 2015 at 9:15:47 AM

Latest Report: Sep 2, 2015 at 9:00 AM


Visibility: 5 mi

Pressure: 30.01 "Hg

Humidity: 100%

Dew point: 73 °F

Location of AbidjanLocation

Historic Weather in Abidjan — Graph

°F

Abidjan temperature yesterday

Maximum temperature yesterday: 81 °F (at 2:00 PM)
Minimum temperature yesterday: 73 °F (at 12:00 AM)
Average temperature yesterday: 76 °F

Past Weeks' High & Low Weather Summary

 TemperatureHumidityPressure
High82 °F (Aug 22, 1:30 PM)100% (Aug 19, 8:00 AM)30.07 "Hg (Aug 19, 8:00 AM)
Low72 °F (Aug 31, 4:00 AM)70% (Aug 23, 1:00 PM)29.83 "Hg (Aug 27, 4:00 PM)
Average77 °F89%29.94 "Hg
* Reported Aug 18 8:00 AM — Sep 2 8:00 AM, Abidjan, Weather by CustomWeather, © 2015

Note: Actual official high and low records may vary slightly from our data, if they occured in-between our weather recording intervals... More about our weather records

Advertising

Abidjan weather history for previous 24 hours

 ConditionsComfort  
Time TempWeatherWind HumidityBarometerVisibility
8:00 AM
Wed, Sep 2
73 °FMostly cloudy.6 mph100%29.98 "Hg4 mi
7:30 AM73 °FMostly cloudy.5 mph100%29.98 "Hg5 mi
7:00 AM73 °FMostly cloudy.6 mph100%29.95 "Hg5 mi
6:30 AM73 °FDrizzle. Cloudy.7 mph100%29.95 "Hg4 mi
6:00 AM73 °FLight rain. Overcast.7 mph100%29.95 "Hg5 mi
5:30 AM73 °FLight rain. Overcast.9 mph100%29.92 "Hg5 mi
5:00 AM75 °FPartly cloudy.8 mph94%29.92 "HgN/A
4:00 AM75 °FPartly cloudy.6 mph94%29.92 "HgN/A
3:30 AM75 °FPartly cloudy.6 mph94%29.92 "HgN/A
3:00 AM75 °FPartly cloudy.6 mph94%29.92 "HgN/A
2:30 AM75 °FPartly cloudy.6 mph94%29.95 "HgN/A
2:00 AM75 °FPartly cloudy.6 mph94%29.95 "HgN/A
1:30 AM75 °FPartly cloudy.6 mph100%29.95 "HgN/A
1:00 AM75 °FPartly cloudy.6 mph94%29.95 "HgN/A
12:30 AM75 °FPartly cloudy.6 mph94%29.98 "HgN/A
12:00 AM75 °FPartly cloudy.6 mph94%29.98 "HgN/A
11:30 PM
Tue, Sep 1
75 °FPassing clouds.6 mph94%29.98 "HgN/A
11:00 PM75 °FPassing clouds.7 mph94%29.98 "HgN/A
9:30 PM75 °FPassing clouds.6 mph94%29.98 "HgN/A
9:00 PM75 °FPassing clouds.6 mph94%29.95 "HgN/A
8:30 PM75 °FPassing clouds.5 mph94%29.95 "HgN/A
8:00 PM75 °FPassing clouds.5 mph94%29.95 "HgN/A
7:30 PM75 °FPassing clouds.5 mph94%29.92 "HgN/A
7:00 PM75 °FPassing clouds.6 mph94%29.92 "HgN/A
6:30 PM75 °FPassing clouds.6 mph94%29.92 "HgN/A
6:00 PM77 °FBroken clouds.7 mph89%29.92 "HgN/A
5:30 PM77 °FBroken clouds.8 mph89%29.92 "HgN/A
5:00 PM77 °FPartly sunny.7 mph89%29.92 "HgN/A
4:30 PM79 °FBroken clouds.8 mph84%29.92 "HgN/A
4:00 PM79 °FBroken clouds.9 mph84%29.92 "HgN/A
3:00 PM81 °FBroken clouds.10 mph79%29.95 "HgN/A
2:30 PM81 °FBroken clouds.10 mph79%29.95 "HgN/A
2:00 PM81 °FBroken clouds.12 mph79%29.95 "HgN/A
1:30 PM79 °FMostly cloudy.10 mph84%29.98 "HgN/A
1:00 PM79 °FMostly cloudy.9 mph84%29.98 "HgN/A
12:30 PM79 °FPartly sunny.9 mph84%29.98 "HgN/A
12:00 PM79 °FPartly sunny.9 mph84%30.01 "HgN/A
11:30 AM79 °FPartly sunny.8 mph84%30.01 "HgN/A
11:00 AM77 °FPartly sunny.9 mph89%30.01 "HgN/A
10:30 AM77 °FPartly sunny.9 mph89%30.01 "Hg5 mi
10:00 AM77 °FPartly sunny.9 mph89%30.01 "Hg4 mi
9:30 AM75 °FPartly sunny.8 mph94%30.01 "Hg4 mi
9:00 AM75 °FPartly sunny.8 mph89%30.01 "Hg4 mi
Weather by CustomWeather, © 2015

See weather overviewHow to use our weather pages